KM8V-8 Weather Reports


time (UTC)temp
C
wind
direction
speed
KPH
gust
KPH
rain 1hr
cm
rain 24hr
cm
rain mn
cm
humidity
%
barometer
mb
20260506103521 7 0.0 0.0 0.00 2.29 1.22 100 1008.6
20260506103022 7 242 1.6 4.8 0.00 2.29 1.22 100 1008.7
20260506102522 7 250 3.2 6.4 0.00 2.29 1.22 100 1008.7
20260506102022 7 234 3.2 6.4 0.00 2.29 1.22 100 1008.7
20260506101522 7 171 3.2 4.8 0.03 2.29 1.22 100 1008.6
20260506101022 7 165 3.2 6.4 0.03 2.29 1.22 100 1008.3
20260506100522 7 137 1.6 3.2 0.03 2.29 1.22 100 1008.0
20260506100022 7 130 1.6 3.2 0.03 2.29 1.22 100 1008.0
20260506095522 7 141 0.0 1.6 0.03 2.29 1.22 100 1007.9
20260506095023 7 0.0 0.0 0.03 2.29 1.22 100 1008.0
20260506094523 7 0.0 0.0 0.03 2.29 1.22 100 1008.1
20260506094022 7 98 1.6 3.2 0.03 2.29 1.22 100 1008.3
20260506093523 7 113 0.0 1.6 0.03 2.29 1.22 100 1008.5
20260506093023 7 0.0 0.0 0.03 2.29 1.22 100 1008.6
20260506092523 7 249 1.6 4.8 0.03 2.29 1.22 100 1008.8
20260506092023 7 250 1.6 3.2 0.03 2.29 1.19 100 1009.0
20260506091523 7 259 3.2 6.4 0.03 2.29 1.19 100 1009.0
20260506091023 7 263 4.8 6.4 0.03 2.26 1.19 100 1008.9
20260506090523 7 254 1.6 3.2 0.05 2.26 1.19 100 1008.6
20260506090023 7 259 3.2 4.8 0.08 2.26 1.19 100 1008.5
20260506085523 7 265 1.6 6.4 0.10 2.26 1.19 100 1008.5
20260506085019 7 255 1.6 8.0 0.10 2.26 1.19 100 1008.4
20260506084519 7 257 3.2 9.7 0.10 2.26 1.19 99 1008.3
20260506084024 7 345 1.6 3.2 0.10 2.26 1.19 99 1008.3
20260506083524 7 266 1.6 6.4 0.13 2.26 1.19 99 1008.3
20260506083024 7 298 1.6 4.8 0.13 2.26 1.19 100 1008.2
20260506082524 7 277 1.6 6.4 0.13 2.26 1.19 100 1008.2
20260506082024 7 286 1.6 6.4 0.15 2.26 1.19 100 1008.4
20260506081520 7 264 3.2 9.7 0.18 2.26 1.17 100 1008.5
20260506081020 7 256 3.2 11.3 0.18 2.24 1.17 100 1008.4
20260506080520 8 274 3.2 12.9 0.15 2.21 1.14 100 1008.6
20260506073525 7 265 1.6 4.8 0.13 2.13 1.07 100 1008.4
20260506073025 7 293 1.6 3.2 0.13 2.13 1.07 100 1008.3
20260506072525 7 281 0.0 3.2 0.13 2.13 1.07 100 1008.3
20260506072025 7 345 0.0 1.6 0.10 2.11 1.04 100 1008.3
20260506071525 7 299 0.0 3.2 0.05 2.08 0.99 100 1008.3
20260506071025 7 236 0.0 6.4 0.05 2.06 0.99 99 1008.3
20260506070525 7 256 0.0 1.6 0.05 2.06 0.99 99 1008.3
20260506062026 7 274 0.0 3.2 0.03 2.03 0.94 99 1008.5
20260506061526 7 288 1.6 3.2 0.03 2.01 0.94 99 1008.5
20260506061026 7 313 0.0 1.6 0.05 2.01 0.94 99 1008.5
20260506060526 7 280 1.6 4.8 0.05 2.01 0.94 99 1008.5
20260506051028 7 0.0 0.0 0.10 1.98 0.89 99 1008.5
20260506050528 7 0.0 0.0 0.10 1.98 0.89 99 1008.5
20260506045028 7 0.0 0.0 0.08 1.93 0.86 99 1008.9
20260506044528 7 0.0 0.0 0.08 1.93 0.84 99 1008.8
20260506044028 7 68 1.6 3.2 0.05 1.91 0.84 99 1008.9
20260506043528 8 56 0.0 1.6 0.05 1.93 0.81 99 1008.9
20260506043028 8 18 0.0 1.6 0.08 1.93 0.81 99 1009.0
20260506042528 8 0.0 0.0 0.08 1.93 0.81 99 1009.0
20260506042029 8 0.0 0.0 0.08 1.93 0.81 99 1009.0
20260506041528 8 336 0.0 0.0 0.10 1.91 0.81 99 1009.1
20260506041029 8 336 0.0 1.6 0.10 1.91 0.81 99 1009.2
20260506040529 8 345 0.0 1.6 0.13 1.91 0.81 99 1009.2
20260506040029 8 335 0.0 1.6 0.15 1.91 0.79 99 1009.2
20260506035516 8 58 0.0 1.6 0.18 1.91 0.79 99 1009.3
20260506035029 8 0.0 0.0 0.20 1.88 0.79 99 1009.4
20260506034529 8 291 0.0 3.2 0.23 1.88 0.76 99 1009.6
20260506034029 8 272 1.6 3.2 0.25 1.88 0.76 99 1009.5
20260506033529 8 254 1.6 3.2 0.28 1.88 0.76 99 1009.5
20260506033030 8 265 3.2 6.4 0.33 1.85 0.76 99 1009.5
20260506032529 8 287 1.6 3.2 0.36 1.85 0.74 99 1009.4
20260506032030 8 0.0 0.0 0.36 1.85 0.74 99 1009.3
20260506031530 9 1 0.0 3.2 0.38 1.83 0.71 99 1009.4
20260506031016 9 57 0.0 1.6 0.41 1.80 0.69 99 1009.3
20260506030530 9 287 1.6 4.8 0.41 1.78 0.69 99 1009.4
20260506030017 9 252 0.0 4.8 0.41 1.75 0.64 99 1009.4
20260506025517 9 284 1.6 6.4 0.41 1.73 0.61 99 1009.4
20260506025017 9 275 1.6 4.8 0.41 1.68 0.58 99 1009.4
20260506024519 9 0.0 0.0 0.38 1.65 0.56 99 1009.4
20260506024017 9 9 0.0 3.2 0.36 1.63 0.51 99 1009.3
20260506023517 9 14 0.0 3.2 0.36 1.57 0.48 99 1009.1
20260506023017 9 4 0.0 3.2 0.33 1.55 0.43 99 1009.0
20260506022517 9 97 0.0 1.6 0.30 1.50 0.41 99 1009.0
20260506022019 9 81 0.0 3.2 0.30 1.50 0.38 99 1008.9
20260506021518 9 62 1.6 6.4 0.25 1.45 0.33 99 1008.9
20260506021019 9 34 1.6 3.2 0.23 1.42 0.30 99 1008.9
20260506020518 9 9 1.6 4.8 0.20 1.37 0.28 99 1008.9
20260506020021 9 345 1.6 4.8 0.15 1.35 0.23 99 1008.9
20260506015519 9 345 1.6 4.8 0.13 1.32 0.20 99 1008.8
20260506015018 9 19 0.0 1.6 0.10 1.30 0.18 99 1008.7
20260506014518 9 18 0.0 3.2 0.10 1.30 0.18 99 1008.7
20260506014018 9 1 0.0 1.6 0.10 1.27 0.15 99 1008.8
20260506013518 9 0.0 0.0 0.05 1.22 0.13 99 1008.7
20260506013018 9 41 0.0 1.6 0.05 1.22 0.10 99 1008.7
20260506012519 9 11 1.6 4.8 0.03 1.19 0.08 99 1008.7
20260506012019 9 358 1.6 3.2 0.03 1.19 0.08 99 1008.7
20260506011519 9 75 0.0 1.6 0.05 1.19 0.08 99 1008.6
20260506011020 9 0.0 0.0 0.05 1.19 0.08 98 1008.6
20260506010519 9 30 0.0 3.2 0.08 1.19 0.08 98 1008.5
20260506010019 9 358 1.6 4.8 0.08 1.19 0.08 98 1008.5
20260506005519 9 28 0.0 3.2 0.08 1.17 0.08 98 1008.5
20260506005019 9 9 1.6 4.8 0.08 1.17 0.08 98 1008.5
20260506004519 9 56 1.6 3.2 0.08 1.17 0.08 98 1008.7
20260506004019 9 265 1.6 3.2 0.08 1.17 0.05 98 1008.7
20260506003519 9 72 1.6 6.4 0.05 1.17 0.05 98 1008.8
20260506003019 9 44 3.2 6.4 0.05 1.17 0.05 98 1008.5
20260506002520 9 44 1.6 3.2 0.05 1.17 0.05 98 1008.3
20260506002019 9 67 1.6 4.8 0.05 1.17 0.05 98 1008.2
20260506001520 9 57 1.6 3.2 0.05 1.14 0.03 98 1008.1
20260506001020 9 45 1.6 4.8 0.05 1.14 0.03 98 1008.1
20260506000521 9 63 3.2 6.4 0.05 1.12 0.00 98 1008.1
20260506000021 9 79 3.2 6.4 0.05 1.12 0.00 98 1008.1
20260505235520 9 82 1.6 8.0 0.08 1.12 1.12 98 1008.2
20260505235020 9 80 3.2 4.8 0.10 1.12 1.12 98 1008.1
20260505234520 9 72 3.2 4.8 0.15 1.12 1.12 98 1008.0
20260505234021 9 62 1.6 4.8 0.23 1.12 1.12 98 1008.1
20260505233519 9 37 1.6 9.7 0.30 1.12 1.12 98 1008.2
20260505233020 9 57 3.2 6.4 0.30 1.09 1.09 98 1008.2
20260505232522 9 75 3.2 4.8 0.33 1.09 1.09 98 1008.4
20260505232022 9 58 1.6 6.4 0.33 1.09 1.09 98 1008.6
20260505231522 9 60 1.6 4.8 0.36 1.09 1.09 98 1008.5
20260505231018 9 10 1.6 9.7 0.38 1.09 1.09 98 1008.5
20260505230521 9 78 1.6 3.2 0.41 1.07 1.07 98 1008.7
20260505230021 10 11 1.6 4.8 0.41 1.07 1.07 98 1008.6
20260505225521 10 13 3.2 4.8 0.41 1.04 1.04 98 1008.6
20260505225021 10 280 1.6 4.8 0.38 1.02 1.02 97 1008.8
20260505224522 10 245 1.6 4.8 0.41 0.97 0.97 97 1008.6
20260505224022 10 297 1.6 4.8 0.36 0.89 0.89 97 1008.3
20260505223521 10 72 0.0 3.2 0.30 0.81 0.81 97 1008.2
20260505223021 10 327 0.0 3.2 0.30 0.79 0.79 97 1008.4
20260505222522 10 256 1.6 4.8 0.30 0.79 0.79 97 1008.4
20260505222022 10 287 1.6 4.8 0.28 0.76 0.76 97 1008.5
20260505221522 10 279 1.6 6.4 0.25 0.74 0.74 97 1008.3
20260505221022 10 271 1.6 4.8 0.23 0.69 0.69 97 1008.2
20260505220522 10 324 1.6 6.4 0.23 0.66 0.66 97 1008.1
20260505220022 10 326 1.6 3.2 0.23 0.66 0.66 97 1008.1
20260505215522 10 15 0.0 3.2 0.23 0.64 0.64 97 1008.0
20260505215022 10 335 3.2 6.4 0.28 0.64 0.61 97 1008.1
20260505214522 10 354 3.2 6.4 0.23 0.56 0.56 97 1008.0
20260505214023 10 49 1.6 3.2 0.25 0.53 0.53 97 1007.8
20260505213522 10 50 3.2 4.8 0.25 0.51 0.51 97 1008.0
20260505213023 10 292 1.6 4.8 0.25 0.51 0.48 97 1007.9
20260505212522 10 345 1.6 4.8 0.25 0.48 0.48 96 1007.8
20260505212023 10 49 0.0 3.2 0.25 0.48 0.48 96 1007.9
20260505211523 10 263 1.6 4.8 0.25 0.48 0.48 96 1007.9
20260505211023 11 258 1.6 6.4 0.25 0.46 0.46 96 1007.8
20260505210523 11 309 1.6 4.8 0.25 0.46 0.43 96 1007.7
20260505210023 11 15 3.2 8.0 0.25 0.46 0.43 96 1007.7
20260505205521 12 309 4.8 14.5 0.23 0.41 0.41 95 1007.7
20260505205021 12 267 3.2 11.3 0.18 0.36 0.36 95 1007.6
20260505204521 13 335 4.8 12.9 0.15 0.33 0.30 96 1007.5
20260505204024 13 272 3.2 6.4 0.13 0.28 0.28 96 1007.5
20260505203521 13 263 3.2 8.0 0.13 0.25 0.25 96 1007.5
20260505203024 13 262 4.8 8.0 0.13 0.25 0.23 96 1007.5
20260505202524 13 277 3.2 6.4 0.13 0.23 0.23 96 1007.4
20260505202024 13 310 3.2 6.4 0.13 0.23 0.23 96 1007.4
20260505201524 13 258 4.8 8.0 0.13 0.23 0.20 95 1007.5
20260505201024 13 240 3.2 6.4 0.13 0.20 0.20 95 1007.4
20260505200524 13 249 4.8 8.0 0.13 0.20 0.20 95 1007.4
20260505200024 13 232 4.8 8.0 0.13 0.20 0.18 95 1007.4
20260505195525 13 256 4.8 8.0 0.13 0.18 0.18 94 1007.4
20260505195025 13 219 4.8 8.0 0.13 0.18 0.18 94 1007.5
20260505194522 13 248 4.8 8.0 0.13 0.18 0.15 93 1007.5
20260505194025 14 212 4.8 6.4 0.10 0.15 0.15 93 1007.5
20260505193522 14 230 4.8 8.0 0.08 0.13 0.13 92 1007.6
20260505193025 14 227 4.8 6.4 0.08 0.13 0.10 92 1007.5
20260505192516 14 255 4.8 9.7 0.05 0.10 0.10 91 1007.5
20260505192016 14 257 4.8 9.7 0.05 0.10 0.08 90 1007.5
20260505191516 15 240 4.8 11.3 0.05 0.10 0.08 89 1007.4
20260505191016 15 259 4.8 9.7 0.05 0.08 0.08 87 1007.4
20260505190516 16 246 4.8 11.3 0.03 0.08 0.08 84 1007.4
20260505190026 16 291 3.2 8.0 0.03 0.08 0.08 81 1007.3
20260505185516 16 254 4.8 9.7 0.00 0.05 0.05 79 1007.2
20260505185022 17 253 4.8 11.3 0.00 0.05 0.03 77 1007.1
20260505184523 17 230 8.0 12.9 0.00 0.05 0.03 75 1007.1
20260505184023 17 267 6.4 14.5 0.00 0.05 0.03 74 1007.0
20260505183523 17 264 6.4 11.3 0.00 0.05 0.03 73 1007.0
20260505183017 17 226 4.8 11.3 0.00 0.05 0.03 73 1007.0
20260505182517 17 243 8.0 12.9 0.00 0.05 0.03 72 1007.0
20260505182017 17 234 6.4 12.9 0.00 0.05 0.03 72 1007.0
20260505181517 17 263 8.0 14.5 0.00 0.05 0.03 72 1006.9
20260505181017 17 235 9.7 19.3 0.00 0.05 0.03 72 1006.8
20260505180518 17 230 9.7 14.5 0.00 0.05 0.03 71 1006.8
20260505180018 17 246 9.7 17.7 0.00 0.05 0.03 71 1006.8
20260505175517 17 221 9.7 22.5 0.00 0.05 0.03 71 1006.8
20260505175017 17 247 8.0 19.3 0.00 0.05 0.03 71 1006.7
20260505174516 17 233 9.7 16.1 0.00 0.05 0.03 71 1006.7
20260505174018 17 234 11.3 19.3 0.00 0.05 0.03 71 1006.7
20260505173518 17 226 9.7 12.9 0.00 0.05 0.03 70 1006.7
20260505173018 17 228 11.3 16.1 0.00 0.05 0.03 70 1006.7
20260505172518 17 257 8.0 14.5 0.00 0.05 0.03 70 1006.7
20260505172018 17 227 9.7 14.5 0.00 0.05 0.03 70 1006.6
20260505171518 17 243 8.0 14.5 0.00 0.05 0.03 71 1006.6
20260505171018 17 248 4.8 9.7 0.00 0.05 0.03 72 1006.6
20260505170518 17 266 6.4 11.3 0.00 0.05 0.03 72 1006.6
20260505170019 17 263 6.4 11.3 0.00 0.05 0.03 71 1006.6
20260505165518 18 266 4.8 9.7 0.00 0.05 0.03 71 1006.6
20260505165018 18 251 4.8 11.3 0.00 0.05 0.03 70 1006.6
20260505164519 18 254 4.8 12.9 0.00 0.05 0.03 68 1006.5
20260505164016 18 237 11.3 22.5 0.00 0.05 0.03 66 1006.5
20260505163516 18 249 9.7 17.7 0.00 0.05 0.03 66 1006.5
20260505163019 18 244 11.3 22.5 0.00 0.05 0.03 65 1006.4
20260505162519 18 227 11.3 20.9 0.00 0.05 0.03 65 1006.3
20260505162019 18 240 9.7 16.1 0.00 0.05 0.03 65 1006.4
20260505161519 18 215 11.3 20.9 0.00 0.05 0.03 65 1006.3
20260505161019 18 206 11.3 20.9 0.00 0.05 0.03 64 1006.2
20260505160519 19 231 8.0 20.9 0.00 0.05 0.03 64 1006.3
20260505153020 19 247 9.7 20.9 0.00 0.05 0.03 63 1005.5
20260505152520 18 231 9.7 20.9 0.00 0.05 0.03 63 1005.3
20260505152017 18 220 11.3 19.3 0.00 0.05 0.03 63 1005.1
20260505151518 18 238 11.3 20.9 0.00 0.05 0.03 63 1005.0
20260505151017 18 225 9.7 17.7 0.00 0.05 0.03 64 1005.0
20260505150517 18 214 12.9 22.5 0.00 0.05 0.03 63 1005.2
20260505140519 17 223 12.9 30.6 0.00 0.05 0.03 69 1005.0
20260505125016 16 219 6.4 16.1 0.00 0.05 0.03 72 1005.3
20260505124517 16 215 6.4 16.1 0.00 0.05 0.03 72 1005.3
20260505124016 16 212 8.0 19.3 0.00 0.05 0.03 71 1005.1
20260505123517 16 218 8.0 19.3 0.00 0.13 0.03 71 1005.1
20260505123017 16 224 8.0 17.7 0.00 0.13 0.03 71 1005.1
20260505122517 16 230 6.4 14.5 0.00 0.13 0.03 71 1005.0
20260505122020 16 218 8.0 19.3 0.00 0.13 0.03 71 1004.9
20260505121523 16 218 4.8 11.3 0.00 0.13 0.03 71 1004.8
20260505121023 16 221 6.4 14.5 0.00 0.13 0.03 71 1004.6
20260505120517 16 201 8.0 16.1 0.00 0.13 0.03 71 1004.4
20260505120017 16 219 6.4 11.3 0.00 0.13 0.03 71 1004.1
20260505115518 16 204 4.8 9.7 0.00 0.13 0.03 70 1004.0
20260505115017 17 211 4.8 11.3 0.00 0.13 0.03 70 1003.8
20260505114518 17 208 4.8 11.3 0.00 0.13 0.03 69 1003.8
20260505114018 17 208 6.4 14.5 0.00 0.13 0.03 69 1003.8
20260505113518 17 222 4.8 9.7 0.00 0.13 0.03 68 1003.7
20260505113018 17 212 4.8 14.5 0.00 0.13 0.03 67 1003.7
20260505112518 17 212 8.0 14.5 0.00 0.13 0.03 67 1003.6
20260505112016 17 218 4.8 17.7 0.00 0.13 0.03 67 1003.6
20260505111518 17 242 6.4 14.5 0.00 0.13 0.03 66 1003.6
20260505111018 17 223 8.0 19.3 0.00 0.13 0.03 66 1003.6
20260505110518 17 210 8.0 14.5 0.00 0.13 0.03 66 1003.7